This is the latest recevied weather packets stored in our database for station/object ANJALA. If no packets are shown the sender has not sent any weather packets the latest 10 day(s).
| Time | Temp. | Humidity | Pressure | Rain* | Wind** | Luminosity | Snow |
|---|---|---|---|---|---|---|---|
| 1777652816 | 20.56° C | 27% | - | 0 mm | - | - | - |
| 1777651616 | 20.56° C | 27% | - | 0 mm | - | - | - |
| 1777650416 | 20.56° C | 32% | - | 0 mm | - | - | - |
| 1777649216 | 20° C | 39% | - | 0 mm | - | - | - |
| 1777648016 | 19.44° C | 40% | - | 0 mm | - | - | - |
| 1777646816 | 20° C | 40% | - | 0 mm | - | - | - |
| 1777645616 | 20.56° C | 30% | - | 0 mm | - | - | - |
| 1777644416 | 20.56° C | 31% | - | 0 mm | - | - | - |
| 1777643216 | 20.56° C | 35% | - | 0 mm | - | - | - |
| 1777642016 | 20.56° C | 32% | - | 0 mm | - | - | - |
| 1777640816 | 20° C | 33% | - | 0 mm | - | - | - |
| 1777639616 | 20° C | 33% | - | 0 mm | - | - | - |
| 1777638416 | 19.44° C | 35% | - | 0 mm | - | - | - |
| 1777637216 | 19.44° C | 37% | - | 0 mm | - | - | - |
| 1777636015 | 19.44° C | 40% | - | 0 mm | - | - | - |
| 1777634815 | 19.44° C | 39% | - | 0 mm | - | - | - |
| 1777633615 | 18.33° C | 39% | - | 0 mm | - | - | - |
| 1777632415 | 18.89° C | 41% | - | 0 mm | - | - | - |
| 1777631215 | 18.89° C | 42% | - | 0 mm | - | - | - |
| 1777630015 | 17.78° C | 42% | - | 0 mm | - | - | - |
| 1777628815 | 17.78° C | 45% | - | 0 mm | - | - | - |
| 1777627615 | 17.22° C | 48% | - | 0 mm | - | - | - |
| 1777626415 | 16.67° C | 47% | - | 0 mm | - | - | - |
| 1777625215 | 16.67° C | 49% | - | 0 mm | - | - | - |
| 1777624015 | 15.56° C | 52% | - | 0 mm | - | - | - |
* Rain latest hour (hover to see other rain measurements)
** Current wind speed in m/s (hover to see current wind gust speed)